Weather History for Laramie, WY

Change the Weather History Date:

Sunday, April 21, 2013

  Actual Average Record
Temperature  
Mean Temperature 39 °F 39 °F  
Max Temperature 47 °F 53 °F 74 °F (1960)
Min Temperature 30 °F 26 °F 3 °F (1982)
Degree Days  
Heating Degree Days 26 26  
Month to date heating degree days 732 599  
Since 1 July heating degree days 7697 7834  
Cooling Degree Days 0 0  
Month to date cooling degree days 0 0  
Year to date cooling degree days 0 0  
Moisture  
Dew Point 25 °F    
Average Humidity 65    
Maximum Humidity 92    
Minimum Humidity 37    
Precipitation  
Precipitation 0.00 in 0.04 in 2.01 in (1983)
Month to date precipitation 0.46 0.68  
Year to date precipitation 1.37 1.87  
Sea Level Pressure  
Sea Level Pressure 29.96 in    
Wind  
Wind Speed 14 mph (WSW)    
Max Wind Speed 28 mph    
Max Gust Speed 32 mph    
T = Trace of Precipitation, MM = Missing Value Source: NWS Daily Summary

Daily Weather History Graph

Daily Weather History Graph

Search for Another Location

Airport:

Trip Planner

Search our weather history database for the weather conditions in past years. The results will help you decide how hot, cold, wet, or windy it might be!

Date:

Astronomy

Apr. 21, 2013 Rise Set
Actual Time 6:13 AM MDT 7:49 PM MDT
Civil Twilight 5:44 AM MDT 8:18 PM MDT
Nautical Twilight 5:09 AM MDT 8:54 PM MDT
Astronomical Twilight 4:31 AM MDT 9:32 PM MDT
Moon 3:35 PM MDT (4/21) 3:40 AM MDT (4/21)
Length of Visible Light 14h 34m
Length of Day
13h 36m
Waxing Gibbous, 80% of the Moon is Illuminated
Apr 21
Waxing Gibbous
Apr 25
Full
May 2
Last Quarter
May 9
New
May 17
First Quarter

Hourly Weather History & Observations

Time (MDT) Temp. Windchill Dew Point Humidity Pressure Visibility Wind Dir Wind Speed Gust Speed Precip Events Conditions
12:53 AM 30.9 °F 25.2 °F 28.0 °F 89% 29.97 in - WSW 5.8 mph - N/A   Partly Cloudy
1:53 AM 32.0 °F 28.7 °F 28.0 °F 85% 29.95 in - WSW 3.5 mph - N/A   Scattered Clouds
2:53 AM 32.0 °F 23.0 °F 26.1 °F 79% 29.95 in - WSW 11.5 mph - N/A   Mostly Cloudy
3:53 AM 32.0 °F 22.5 °F 27.0 °F 82% 29.94 in - SW 12.7 mph - N/A   Mostly Cloudy
4:53 AM 33.1 °F 22.6 °F 26.1 °F 75% 29.95 in - WSW 16.1 mph - N/A   Overcast
5:53 AM 32.0 °F 22.1 °F 26.1 °F 79% 29.99 in - WSW 13.8 mph - N/A   Overcast
6:53 AM 33.1 °F 26.1 °F 27.0 °F 78% 30.02 in - WSW 8.1 mph - N/A   Overcast
7:53 AM 36.0 °F 27.1 °F 26.1 °F 67% 30.01 in - WSW 13.8 mph - N/A   Scattered Clouds
8:53 AM 37.9 °F 27.6 °F 26.1 °F 62% 30.01 in - WSW 20.7 mph - N/A   Scattered Clouds
9:53 AM 39.9 °F 30.2 °F 25.0 °F 55% 30.01 in - WSW 20.7 mph - N/A   Clear
10:53 AM 41.0 °F 32.5 °F 25.0 °F 53% 29.99 in - West 17.3 mph - N/A   Clear
11:53 AM 44.1 °F 35.9 °F 26.1 °F 49% 29.98 in - West 19.6 mph 32.2 mph N/A   Clear
12:53 PM 45.0 °F 38.2 °F 24.1 °F 44% 29.97 in - WSW 15.0 mph 23.0 mph N/A   Clear
1:53 PM 46.0 °F 38.5 °F 21.9 °F 39% 29.96 in - West 19.6 mph 25.3 mph N/A   Clear
2:53 PM 45.0 °F 37.4 °F 21.0 °F 39% 29.95 in - West 18.4 mph - N/A   Clear
3:53 PM 46.0 °F 39.3 °F 21.0 °F 37% 29.94 in - West 16.1 mph - N/A   Clear
4:53 PM 43.0 °F 34.2 °F 23.0 °F 45% 29.96 in - West 20.7 mph - N/A   Overcast
5:53 PM 46.0 °F 40.2 °F 26.1 °F 46% 29.93 in - WSW 12.7 mph - N/A   Clear
6:53 PM 45.0 °F 40.1 °F 21.0 °F 39% 29.92 in - SSW 9.2 mph - N/A   Clear
7:53 PM 39.9 °F 33.9 °F 23.0 °F 51% 29.93 in - SW 9.2 mph - N/A   Clear
8:53 PM 35.1 °F 31.0 °F 21.9 °F 59% 29.94 in - SSW 4.6 mph - N/A   Clear
9:53 PM 36.0 °F 29.6 °F 23.0 °F 59% 29.94 in - South 8.1 mph - N/A   Clear
10:53 PM 39.0 °F 30.6 °F 23.0 °F 53% 29.90 in - West 15.0 mph 20.7 mph N/A   Clear
11:53 PM 37.9 °F 27.6 °F 26.1 °F 62% 29.86 in - WSW 20.7 mph - N/A   Partly Cloudy